Arlington, WA
on Monday, November 26, 2012

Monday
Previous Day Next Day
Daily Summary
 ActualAverageRecord
Temperature
Mean Temperature °F / °C °F / °C  
Max Temperature 44°F / 7°C 46°F / 7°C 55°F / 12°C (2011)
Min Temperature 23°F / -5°C 25°F / -3°C 23°F / -5°C (2012)
Degree Days
Heating Degree Days 32    
Moisture
Dew Point 28°F / -2°C   
Average Humidity 86    
Maximum Humidity 100    
Minimum Humidity 66    
Precipitation
Precipitation 0.00 in / 0.00 cm in / cm in / cm ()
Wind
Wind Speed 1 mph / 2 km/h   
Max Wind Speed 6 mph / 10 km/h   
Max Gust Speed mph / km/h   
Visibility 6 miles / 10 kilometers   
Events     
Averages and records for this station are not official NWS values.
Key: T is trace of precipitation, MM is missing value
Source: NWS Daily Summary
Seasonal Weather Averages
Time(PST)TemperatureDew PointHumidity Pressure Visibility Wind DirectionWind SpeedGust SpeedPrecipitationEvents Conditions
12:15 AM 30.2°F / -1.0°C 28.4°F / -2.0°C 93% 30.26 in / 1024.6 hPa 2.0 miles / 3.2 kilometers Calm Calm - N/A   Overcast
12:35 AM 28.4°F / -2.0°C 24.8°F / -4.0°C 86% 30.26 in / 1024.6 hPa 0.2 miles / 0.4 kilometers North 3.5 mph / 5.6 km/h - N/A   Overcast
12:55 AM 28.4°F / -2.0°C 26.6°F / -3.0°C 93% 30.26 in / 1024.6 hPa 1.0 miles / 1.6 kilometers Calm Calm - N/A   Overcast
1:15 AM 28.4°F / -2.0°C 28.4°F / -2.0°C 100% 30.25 in / 1024.3 hPa 8.0 miles / 12.9 kilometers Calm Calm - N/A   Partly Cloudy
1:35 AM 28.4°F / -2.0°C 26.6°F / -3.0°C 93% 30.25 in / 1024.3 hPa 5.0 miles / 8.0 kilometers Calm Calm - N/A   Clear
1:55 AM 28.4°F / -2.0°C 24.8°F / -4.0°C 86% 30.25 in / 1024.3 hPa 0.8 miles / 1.2 kilometers Calm Calm - N/A   Unknown
2:15 AM 28.4°F / -2.0°C 26.6°F / -3.0°C 93% 30.23 in / 1023.6 hPa 9.0 miles / 14.5 kilometers Calm Calm - N/A   Clear
2:55 AM 24.8°F / -4.0°C 24.8°F / -4.0°C 100% 30.22 in / 1023.2 hPa 3.0 miles / 4.8 kilometers Calm Calm - N/A   Clear
3:15 AM 28.4°F / -2.0°C 26.6°F / -3.0°C 93% 30.22 in / 1023.2 hPa 0.8 miles / 1.2 kilometers Calm Calm - N/A   Unknown
3:35 AM 24.8°F / -4.0°C 21.2°F / -6.0°C 86% 30.21 in / 1022.9 hPa 0.8 miles / 1.2 kilometers Calm Calm - N/A   Mostly Cloudy
3:55 AM 24.8°F / -4.0°C 23.0°F / -5.0°C 93% 30.20 in / 1022.6 hPa 0.2 miles / 0.4 kilometers Calm Calm - N/A   Overcast
4:15 AM 24.8°F / -4.0°C 21.2°F / -6.0°C 86% 30.20 in / 1022.6 hPa 0.5 miles / 0.8 kilometers Calm Calm - N/A   Mostly Cloudy
4:35 AM 24.8°F / -4.0°C 23.0°F / -5.0°C 93% 30.20 in / 1022.6 hPa 1.0 miles / 1.6 kilometers Calm Calm - N/A   Scattered Clouds
4:55 AM 26.6°F / -3.0°C 24.8°F / -4.0°C 93% 30.20 in / 1022.6 hPa 1.2 miles / 2.0 kilometers Calm Calm - N/A   Clear
5:15 AM 26.6°F / -3.0°C 24.8°F / -4.0°C 93% 30.20 in / 1022.6 hPa 7.0 miles / 11.3 kilometers Calm Calm - N/A   Clear
5:35 AM 26.6°F / -3.0°C 24.8°F / -4.0°C 93% 30.19 in / 1022.2 hPa 9.0 miles / 14.5 kilometers Calm Calm - N/A   Clear
5:55 AM 26.6°F / -3.0°C 26.6°F / -3.0°C 100% 30.19 in / 1022.2 hPa 10.0 miles / 16.1 kilometers Calm Calm - N/A   Clear
6:15 AM 26.6°F / -3.0°C 24.8°F / -4.0°C 93% 30.20 in / 1022.6 hPa 1.2 miles / 2.0 kilometers Calm Calm - N/A   Clear
6:35 AM 26.6°F / -3.0°C 24.8°F / -4.0°C 93% 30.19 in / 1022.2 hPa 1.0 miles / 1.6 kilometers Calm Calm - N/A   Clear
6:55 AM 24.8°F / -4.0°C 21.2°F / -6.0°C 86% 30.19 in / 1022.2 hPa 0.5 miles / 0.8 kilometers Calm Calm - N/A   Mostly Cloudy
7:15 AM 24.8°F / -4.0°C 23.0°F / -5.0°C 93% 30.19 in / 1022.2 hPa 0.2 miles / 0.4 kilometers Calm Calm - N/A   Overcast
7:35 AM 24.8°F / -4.0°C 23.0°F / -5.0°C 93% 30.18 in / 1021.9 hPa 0.8 miles / 1.2 kilometers Calm Calm - N/A   Overcast
7:55 AM 23.0°F / -5.0°C 21.2°F / -6.0°C 93% 30.17 in / 1021.6 hPa 0.5 miles / 0.8 kilometers Calm Calm - N/A   Mostly Cloudy
8:15 AM 24.8°F / -4.0°C 21.2°F / -6.0°C 86% 30.16 in / 1021.2 hPa 0.2 miles / 0.4 kilometers Calm Calm - N/A   Overcast
8:35 AM 26.6°F / -3.0°C 24.8°F / -4.0°C 93% 30.16 in / 1021.2 hPa 4.0 miles / 6.4 kilometers Calm Calm - N/A   Partly Cloudy
8:55 AM 26.6°F / -3.0°C 24.8°F / -4.0°C 93% 30.15 in / 1020.9 hPa 8.0 miles / 12.9 kilometers Calm Calm - N/A   Clear
9:15 AM 30.2°F / -1.0°C 28.4°F / -2.0°C 93% 30.16 in / 1021.2 hPa 7.0 miles / 11.3 kilometers Calm Calm - N/A   Clear
9:35 AM 30.2°F / -1.0°C 28.4°F / -2.0°C 93% 30.16 in / 1021.2 hPa 10.0 miles / 16.1 kilometers Calm Calm - N/A   Clear
9:55 AM 32.0°F / 0.0°C 30.2°F / -1.0°C 93% 30.16 in / 1021.2 hPa 10.0 miles / 16.1 kilometers Calm Calm - N/A   Clear
10:15 AM 33.8°F / 1.0°C 30.2°F / -1.0°C 87% 30.16 in / 1021.2 hPa 10.0 miles / 16.1 kilometers Calm Calm - N/A   Clear
10:35 AM 35.6°F / 2.0°C 32.0°F / 0.0°C 87% 30.15 in / 1020.9 hPa 10.0 miles / 16.1 kilometers Calm Calm - N/A   Clear
10:55 AM 35.6°F / 2.0°C 33.8°F / 1.0°C 93% 30.15 in / 1020.9 hPa 10.0 miles / 16.1 kilometers Calm Calm - N/A   Clear
11:15 AM 37.4°F / 3.0°C 33.8°F / 1.0°C 87% 30.14 in / 1020.5 hPa 10.0 miles / 16.1 kilometers Calm Calm - N/A   Clear
11:35 AM 39.2°F / 4.0°C 33.8°F / 1.0°C 81% 30.14 in / 1020.5 hPa 10.0 miles / 16.1 kilometers Calm Calm - N/A   Clear
11:55 AM 39.2°F / 4.0°C 33.8°F / 1.0°C 81% 30.13 in / 1020.2 hPa 10.0 miles / 16.1 kilometers Calm Calm - N/A   Clear
12:15 PM 41.0°F / 5.0°C 33.8°F / 1.0°C 76% 30.12 in / 1019.9 hPa 10.0 miles / 16.1 kilometers Calm Calm - N/A   Clear
12:35 PM 42.8°F / 6.0°C 33.8°F / 1.0°C 70% 30.12 in / 1019.9 hPa 10.0 miles / 16.1 kilometers Calm Calm - N/A   Clear
12:55 PM 42.8°F / 6.0°C 33.8°F / 1.0°C 70% 30.11 in / 1019.5 hPa 10.0 miles / 16.1 kilometers Calm Calm - N/A   Clear
1:15 PM 44.6°F / 7.0°C 33.8°F / 1.0°C 66% 30.10 in / 1019.2 hPa 10.0 miles / 16.1 kilometers Calm Calm - N/A   Clear
1:35 PM 44.6°F / 7.0°C 33.8°F / 1.0°C 66% 30.09 in / 1018.8 hPa 10.0 miles / 16.1 kilometers NW 5.8 mph / 9.3 km/h - N/A   Clear
1:55 PM 44.6°F / 7.0°C 33.8°F / 1.0°C 66% 30.09 in / 1018.8 hPa 10.0 miles / 16.1 kilometers NW 3.5 mph / 5.6 km/h - N/A   Clear
2:15 PM 44.6°F / 7.0°C 33.8°F / 1.0°C 66% 30.09 in / 1018.8 hPa 10.0 miles / 16.1 kilometers NNW 4.6 mph / 7.4 km/h - N/A   Clear
2:35 PM 44.6°F / 7.0°C 33.8°F / 1.0°C 66% 30.09 in / 1018.8 hPa 10.0 miles / 16.1 kilometers NNW 3.5 mph / 5.6 km/h - N/A   Clear
2:55 PM 44.6°F / 7.0°C 33.8°F / 1.0°C 66% 30.09 in / 1018.8 hPa 10.0 miles / 16.1 kilometers NW 4.6 mph / 7.4 km/h - N/A   Clear
3:15 PM 44.6°F / 7.0°C 35.6°F / 2.0°C 71% 30.09 in / 1018.8 hPa 10.0 miles / 16.1 kilometers NW 4.6 mph / 7.4 km/h - N/A   Clear
3:35 PM 42.8°F / 6.0°C 35.6°F / 2.0°C 76% 30.09 in / 1018.8 hPa 10.0 miles / 16.1 kilometers NNW 4.6 mph / 7.4 km/h - N/A   Clear
3:55 PM 41.0°F / 5.0°C 33.8°F / 1.0°C 76% 30.08 in / 1018.5 hPa 10.0 miles / 16.1 kilometers Calm Calm - N/A   Clear
4:15 PM 39.2°F / 4.0°C 33.8°F / 1.0°C 81% 30.08 in / 1018.5 hPa 10.0 miles / 16.1 kilometers Calm Calm - N/A   Clear
4:35 PM 37.4°F / 3.0°C 30.2°F / -1.0°C 75% 30.09 in / 1018.8 hPa 10.0 miles / 16.1 kilometers WNW 3.5 mph / 5.6 km/h - N/A   Clear
4:55 PM 37.4°F / 3.0°C 32.0°F / 0.0°C 81% 30.08 in / 1018.5 hPa 10.0 miles / 16.1 kilometers Calm Calm - N/A   Clear
5:15 PM 37.4°F / 3.0°C 30.2°F / -1.0°C 75% 30.08 in / 1018.5 hPa 10.0 miles / 16.1 kilometers Calm Calm - N/A   Clear
5:35 PM 37.4°F / 3.0°C 32.0°F / 0.0°C 81% 30.08 in / 1018.5 hPa 10.0 miles / 16.1 kilometers Calm Calm - N/A   Clear
5:55 PM 35.6°F / 2.0°C 30.2°F / -1.0°C 81% 30.08 in / 1018.5 hPa 10.0 miles / 16.1 kilometers Calm Calm - N/A   Clear
6:15 PM 33.8°F / 1.0°C 30.2°F / -1.0°C 87% 30.09 in / 1018.8 hPa 10.0 miles / 16.1 kilometers Calm Calm - N/A   Clear
6:35 PM 33.8°F / 1.0°C 28.4°F / -2.0°C 81% 30.08 in / 1018.5 hPa 10.0 miles / 16.1 kilometers Calm Calm - N/A   Clear
6:55 PM 32.0°F / 0.0°C 28.4°F / -2.0°C 87% 30.09 in / 1018.8 hPa 10.0 miles / 16.1 kilometers Calm Calm - N/A   Clear
7:15 PM 32.0°F / 0.0°C 28.4°F / -2.0°C 87% 30.08 in / 1018.5 hPa 10.0 miles / 16.1 kilometers Calm Calm - N/A   Clear
7:35 PM 32.0°F / 0.0°C 28.4°F / -2.0°C 87% 30.08 in / 1018.5 hPa 10.0 miles / 16.1 kilometers Calm Calm - N/A   Clear
7:55 PM 30.2°F / -1.0°C 28.4°F / -2.0°C 93% 30.08 in / 1018.5 hPa 10.0 miles / 16.1 kilometers Calm Calm - N/A   Clear
8:15 PM 33.8°F / 1.0°C 30.2°F / -1.0°C 87% 30.08 in / 1018.5 hPa 5.0 miles / 8.0 kilometers Calm Calm - N/A   Clear
8:35 PM 30.2°F / -1.0°C 28.4°F / -2.0°C 93% 30.09 in / 1018.8 hPa 2.5 miles / 4.0 kilometers Calm Calm - N/A   Clear
8:55 PM 30.2°F / -1.0°C 28.4°F / -2.0°C 93% 30.09 in / 1018.8 hPa 5.0 miles / 8.0 kilometers Calm Calm - N/A   Clear
9:15 PM 28.4°F / -2.0°C 28.4°F / -2.0°C 100% 30.09 in / 1018.8 hPa 0.8 miles / 1.2 kilometers Calm Calm - N/A   Unknown
9:35 PM 30.2°F / -1.0°C 28.4°F / -2.0°C 93% 30.09 in / 1018.8 hPa 8.0 miles / 12.9 kilometers Calm Calm - N/A   Clear
9:55 PM 28.4°F / -2.0°C 28.4°F / -2.0°C 100% 30.09 in / 1018.8 hPa 0.5 miles / 0.8 kilometers Calm Calm - N/A   Unknown
10:15 PM 26.6°F / -3.0°C 24.8°F / -4.0°C 93% 30.09 in / 1018.8 hPa 0.5 miles / 0.8 kilometers Calm Calm - N/A   Mostly Cloudy
10:35 PM 28.4°F / -2.0°C 26.6°F / -3.0°C 93% 30.09 in / 1018.8 hPa 4.0 miles / 6.4 kilometers Calm Calm - N/A   Partly Cloudy
10:55 PM 30.2°F / -1.0°C 28.4°F / -2.0°C 93% 30.10 in / 1019.2 hPa 1.5 miles / 2.4 kilometers Calm Calm - N/A   Clear
11:15 PM 28.4°F / -2.0°C 26.6°F / -3.0°C 93% 30.10 in / 1019.2 hPa 1.5 miles / 2.4 kilometers Calm Calm - N/A   Clear
11:35 PM 30.2°F / -1.0°C 28.4°F / -2.0°C 93% 30.10 in / 1019.2 hPa 5.0 miles / 8.0 kilometers Calm Calm - N/A   Clear
11:55 PM 28.4°F / -2.0°C 24.8°F / -4.0°C 86% 30.10 in / 1019.2 hPa 6.0 miles / 9.7 kilometers Calm Calm - N/A   Clear
Moon Phase
Nov. 26 Nov. 28 Dec. 06 Dec. 13 Dec. 20
Sunrise:07:32 AM (PST) Moon Rise:03:19 PM (PST)11/26
Sunset:04:19 PM (PST) Moon Set:05:42 AM (PST)11/26

Copyright © 2014 The Weather Underground, Inc.